Tacoma Narrows, WA
on Monday, February 4, 2013

Monday
Previous Day Next Day
Daily Summary
 ActualAverageRecord
Temperature
Mean Temperature °F / °C °F / °C  
Max Temperature 50°F / 10°C 46°F / 7°C 57°F / 13°C (2009)
Min Temperature 42°F / 6°C 36°F / 2°C 28°F / -2°C (2014)
Degree Days
Heating Degree Days 19    
Moisture
Dew Point 40°F / 4°C   
Average Humidity 79    
Maximum Humidity 89    
Minimum Humidity 68    
Precipitation
Precipitation 0.00 in / 0.00 cm in / cm in / cm ()
Wind
Wind Speed 6 mph / 10 km/h   
Max Wind Speed 10 mph / 16 km/h   
Max Gust Speed mph / km/h   
Visibility 10 miles / 16 kilometers   
Events Rain   
Averages and records for this station are not official NWS values.
Key: T is trace of precipitation, MM is missing value
Source: NWS Daily Summary
Seasonal Weather Averages
Time(PST)TemperatureDew PointHumidity Pressure Visibility Wind DirectionWind SpeedGust SpeedPrecipitationEvents Conditions
12:11 AM 44.6°F / 7.0°C 41.0°F / 5.0°C 87% 30.21 in / 1022.9 hPa 9.0 miles / 14.5 kilometers SSW 5.8 mph / 9.3 km/h - N/A   Overcast
12:53 AM 44.1°F / 6.7°C 39.9°F / 4.4°C 85% 30.22 in / 1023.1 hPa 10.0 miles / 16.1 kilometers SSW 10.4 mph / 16.7 km/h - N/A   Overcast
2:53 AM 44.6°F / 7.0°C 39.2°F / 4.0°C 81% 30.20 in / 1022.6 hPa 10.0 miles / 16.1 kilometers South 8.1 mph / 13.0 km/h - N/A   Overcast
3:53 AM 44.1°F / 6.7°C 39.9°F / 4.4°C 85% 30.19 in / 1022.4 hPa 10.0 miles / 16.1 kilometers South 6.9 mph / 11.1 km/h - N/A   Overcast
4:53 AM 44.1°F / 6.7°C 39.9°F / 4.4°C 85% 30.18 in / 1022.0 hPa 10.0 miles / 16.1 kilometers South 5.8 mph / 9.3 km/h - N/A   Overcast
5:53 AM 44.1°F / 6.7°C 39.9°F / 4.4°C 85% 30.18 in / 1021.9 hPa 10.0 miles / 16.1 kilometers SSW 6.9 mph / 11.1 km/h - N/A   Overcast
6:53 AM 44.1°F / 6.7°C 39.0°F / 3.9°C 82% 30.17 in / 1021.4 hPa 10.0 miles / 16.1 kilometers South 6.9 mph / 11.1 km/h - N/A   Overcast
7:53 AM 44.1°F / 6.7°C 39.9°F / 4.4°C 85% 30.17 in / 1021.5 hPa 10.0 miles / 16.1 kilometers South 6.9 mph / 11.1 km/h - N/A   Overcast
8:53 AM 45.0°F / 7.2°C 39.9°F / 4.4°C 82% 30.17 in / 1021.6 hPa 10.0 miles / 16.1 kilometers South 8.1 mph / 13.0 km/h - N/A   Mostly Cloudy
9:53 AM 46.0°F / 7.8°C 39.9°F / 4.4°C 79% 30.17 in / 1021.4 hPa 10.0 miles / 16.1 kilometers SSW 4.6 mph / 7.4 km/h - N/A   Overcast
10:53 AM 46.9°F / 8.3°C 39.9°F / 4.4°C 77% 30.16 in / 1021.3 hPa 10.0 miles / 16.1 kilometers South 3.5 mph / 5.6 km/h - N/A   Overcast
11:33 AM 46.4°F / 8.0°C 39.2°F / 4.0°C 76% 30.15 in / 1020.9 hPa 10.0 miles / 16.1 kilometers South 3.5 mph / 5.6 km/h - N/A   Scattered Clouds
11:53 AM 46.9°F / 8.3°C 39.9°F / 4.4°C 77% 30.15 in / 1020.8 hPa 10.0 miles / 16.1 kilometers South 4.6 mph / 7.4 km/h - N/A   Scattered Clouds
12:53 PM 48.9°F / 9.4°C 39.9°F / 4.4°C 71% 30.11 in / 1019.4 hPa 10.0 miles / 16.1 kilometers SSW 3.5 mph / 5.6 km/h - N/A   Scattered Clouds
1:53 PM 50.0°F / 10.0°C 39.9°F / 4.4°C 68% 30.08 in / 1018.4 hPa 10.0 miles / 16.1 kilometers WNW 4.6 mph / 7.4 km/h - N/A   Clear
2:53 PM 50.0°F / 10.0°C 39.9°F / 4.4°C 68% 30.04 in / 1017.2 hPa 10.0 miles / 16.1 kilometers Calm Calm - N/A   Scattered Clouds
3:53 PM 48.9°F / 9.4°C 39.9°F / 4.4°C 71% 30.03 in / 1016.7 hPa 10.0 miles / 16.1 kilometers Calm Calm - N/A   Scattered Clouds
4:53 PM 48.0°F / 8.9°C 39.0°F / 3.9°C 71% 30.03 in / 1016.9 hPa 10.0 miles / 16.1 kilometers Calm Calm - N/A   Mostly Cloudy
5:53 PM 46.9°F / 8.3°C 39.0°F / 3.9°C 74% 30.01 in / 1016.2 hPa 10.0 miles / 16.1 kilometers Calm Calm - N/A   Overcast
6:53 PM 46.9°F / 8.3°C 39.9°F / 4.4°C 77% 29.96 in / 1014.5 hPa 10.0 miles / 16.1 kilometers NE 4.6 mph / 7.4 km/h - N/A   Overcast
7:53 PM 46.9°F / 8.3°C 39.9°F / 4.4°C 77% 29.91 in / 1012.7 hPa 10.0 miles / 16.1 kilometers NNE 5.8 mph / 9.3 km/h - 0.00 in / 0.0 cm Rain Light Rain
8:53 PM 46.9°F / 8.3°C 39.9°F / 4.4°C 77% 29.92 in / 1013.1 hPa 10.0 miles / 16.1 kilometers WNW 3.5 mph / 5.6 km/h - N/A   Overcast
9:53 PM 46.0°F / 7.8°C 39.9°F / 4.4°C 79% 29.92 in / 1013.1 hPa 10.0 miles / 16.1 kilometers WSW 4.6 mph / 7.4 km/h - N/A   Overcast
10:53 PM 42.1°F / 5.6°C 39.0°F / 3.9°C 89% 29.91 in / 1012.9 hPa 10.0 miles / 16.1 kilometers South 5.8 mph / 9.3 km/h - N/A   Partly Cloudy
11:53 PM 44.1°F / 6.7°C 39.9°F / 4.4°C 85% 29.92 in / 1013.0 hPa 10.0 miles / 16.1 kilometers SW 9.2 mph / 14.8 km/h - N/A   Partly Cloudy
Moon Phase
Feb. 04 Feb. 10 Feb. 17 Feb. 25 Mar. 04
Sunrise:07:31 AM (PST) Moon Rise:02:18 AM (PST)2/4
Sunset:05:17 PM (PST) Moon Set:11:39 AM (PST)2/4

Copyright © 2014 The Weather Underground, Inc.